APG912 RPLL-RPVE

Flight info

Callsign APG912
Flight time 0h 34m
Altitude 26000
Route VERDE2R VERDE W24 TAPER TAPER7A
Aircraft A320/M-SDE3FGHIRWY/LB1

Departure

Time 2026-05-08 08:29
Airport Ninoy Aquino International Airport (RPLL)

Arrival

Time 2026-05-08 09:04
Airport Godofredo P. Ramos Airport (RPVE)
Time Latitude Longitude Altitude Speed Heading
2026-05-08 08:12 14.50862 121.01337 68 ft 0 kts 329°
2026-05-08 08:20 14.50853 121.01342 60 ft 2 kts 327°
2026-05-08 08:20 14.50840 121.01351 62 ft 2 kts 329°
2026-05-08 08:20 14.50825 121.01360 61 ft 2 kts 330°
2026-05-08 08:21 14.50811 121.01368 64 ft 2 kts 345°
2026-05-08 08:21 14.50794 121.01371 60 ft 2 kts 310°
2026-05-08 08:21 14.50790 121.01385 63 ft 2 kts 251°
2026-05-08 08:21 14.50794 121.01395 59 ft 1 kts 240°
2026-05-08 08:22 14.50794 121.01396 59 ft 0 kts 240°
2026-05-08 08:23 14.50784 121.01376 60 ft 10 kts 240°
2026-05-08 08:23 14.50746 121.01322 66 ft 8 kts 217°
2026-05-08 08:23 14.50699 121.01319 66 ft 6 kts 175°
2026-05-08 08:24 14.50663 121.01305 66 ft 5 kts 220°
2026-05-08 08:24 14.50648 121.01282 62 ft 3 kts 239°
2026-05-08 08:24 14.50626 121.01242 63 ft 9 kts 240°
2026-05-08 08:24 14.50596 121.01188 65 ft 8 kts 240°
2026-05-08 08:25 14.50569 121.01141 59 ft 7 kts 240°
2026-05-08 08:25 14.50546 121.01101 61 ft 6 kts 239°
2026-05-08 08:25 14.50527 121.01067 64 ft 5 kts 239°
2026-05-08 08:25 14.50512 121.01041 69 ft 4 kts 241°
2026-05-08 08:26 14.50487 121.00993 59 ft 13 kts 239°
2026-05-08 08:26 14.50422 121.00877 63 ft 24 kts 237°
2026-05-08 08:26 14.50330 121.00711 63 ft 27 kts 240°
2026-05-08 08:26 14.50232 121.00537 65 ft 29 kts 239°
2026-05-08 08:27 14.50132 121.00354 64 ft 30 kts 240°
2026-05-08 08:27 14.50027 121.00169 64 ft 30 kts 239°
2026-05-08 08:27 14.49932 120.99997 63 ft 20 kts 240°
2026-05-08 08:27 14.49835 120.99984 67 ft 16 kts 149°
2026-05-08 08:28 14.49822 121.00081 63 ft 16 kts 56°
2026-05-08 08:28 14.49875 121.00169 60 ft 15 kts 60°
2026-05-08 08:28 14.49999 121.00402 67 ft 71 kts 63°
2026-05-08 08:28 14.50358 121.01034 67 ft 130 kts 60°
2026-05-08 08:29 14.50894 121.01976 180 ft 165 kts 63°
2026-05-08 08:29 14.51458 121.02986 934 ft 162 kts 63°
2026-05-08 08:29 14.52046 121.04003 1629 ft 168 kts 61°
2026-05-08 08:29 14.52662 121.05091 1991 ft 185 kts 63°
2026-05-08 08:30 14.53323 121.06305 2248 ft 209 kts 62°
2026-05-08 08:30 14.54072 121.07688 2580 ft 233 kts 62°
2026-05-08 08:30 14.55779 121.10800 3822 ft 257 kts 61°
2026-05-08 08:31 14.56414 121.12527 4630 ft 262 kts 84°
2026-05-08 08:31 14.56091 121.14376 5419 ft 269 kts 116°
2026-05-08 08:31 14.54899 121.15896 6183 ft 277 kts 132°
2026-05-08 08:31 14.53534 121.17316 6983 ft 279 kts 133°
2026-05-08 08:32 14.52145 121.18737 7746 ft 283 kts 133°
2026-05-08 08:32 14.50738 121.20173 8480 ft 286 kts 133°
2026-05-08 08:32 14.49316 121.21629 9252 ft 290 kts 132°
2026-05-08 08:32 14.47758 121.22974 9958 ft 298 kts 149°
2026-05-08 08:33 14.45738 121.23604 10453 ft 315 kts 175°
2026-05-08 08:33 14.43534 121.23219 10770 ft 337 kts 202°
2026-05-08 08:33 14.41566 121.21767 10923 ft 361 kts 224°
2026-05-08 08:33 14.39791 121.19859 11312 ft 373 kts 227°
2026-05-08 08:34 14.38062 121.17834 11890 ft 378 kts 229°
2026-05-08 08:34 14.36346 121.15765 12499 ft 381 kts 229°
2026-05-08 08:34 14.34615 121.13681 13111 ft 385 kts 229°
2026-05-08 08:34 14.32846 121.11587 13717 ft 388 kts 228°
2026-05-08 08:35 14.31045 121.09495 14249 ft 392 kts 227°
2026-05-08 08:35 14.29216 121.07402 14788 ft 394 kts 226°
2026-05-08 08:35 14.27179 121.05507 15308 ft 396 kts 215°
2026-05-08 08:35 14.24896 121.03905 15851 ft 398 kts 212°
2026-05-08 08:36 14.22592 121.02297 16381 ft 401 kts 212°
2026-05-08 08:36 14.20280 121.00670 16918 ft 403 kts 213°
2026-05-08 08:36 14.17964 120.99031 17441 ft 405 kts 213°
2026-05-08 08:36 14.15631 120.97377 17944 ft 408 kts 213°
2026-05-08 08:37 14.13316 120.95737 18379 ft 411 kts 212°
2026-05-08 08:37 14.10950 120.94064 18805 ft 413 kts 213°
2026-05-08 08:37 14.08545 120.92431 19209 ft 415 kts 207°
2026-05-08 08:37 14.05909 120.91224 19610 ft 415 kts 196°
2026-05-08 08:38 14.03095 120.90600 20019 ft 414 kts 184°
2026-05-08 08:38 14.00208 120.90580 20417 ft 415 kts 172°
2026-05-08 08:38 13.97376 120.91134 20810 ft 415 kts 164°
2026-05-08 08:38 13.94566 120.91862 21204 ft 418 kts 164°
2026-05-08 08:39 13.91732 120.92590 21589 ft 421 kts 164°
2026-05-08 08:39 13.88878 120.93319 21969 ft 424 kts 164°
2026-05-08 08:39 13.86005 120.94056 22353 ft 427 kts 164°
2026-05-08 08:39 13.83111 120.94799 22717 ft 430 kts 165°
2026-05-08 08:40 13.80198 120.95544 23074 ft 433 kts 165°
2026-05-08 08:40 13.77257 120.96295 23428 ft 436 kts 165°
2026-05-08 08:40 13.74300 120.97049 23734 ft 439 kts 165°
2026-05-08 08:40 13.71327 120.97809 24041 ft 441 kts 165°
2026-05-08 08:41 13.68339 120.98572 24359 ft 444 kts 165°
2026-05-08 08:41 13.65378 120.99332 24667 ft 445 kts 165°
2026-05-08 08:41 13.62361 121.00108 24809 ft 446 kts 165°
2026-05-08 08:41 13.59350 121.00881 24851 ft 446 kts 165°
2026-05-08 08:42 13.56341 121.01651 24847 ft 446 kts 165°
2026-05-08 08:42 13.53321 121.02427 24853 ft 446 kts 163°
2026-05-08 08:42 13.50406 121.03497 24853 ft 444 kts 154°
2026-05-08 08:42 13.47716 121.05037 24856 ft 442 kts 144°
2026-05-08 08:43 13.45176 121.06832 24855 ft 442 kts 144°
2026-05-08 08:43 13.42642 121.08615 24857 ft 442 kts 144°
2026-05-08 08:43 13.40097 121.10403 24859 ft 442 kts 144°
2026-05-08 08:43 13.37558 121.12188 24862 ft 442 kts 144°
2026-05-08 08:44 13.35021 121.13970 24862 ft 442 kts 144°
2026-05-08 08:44 13.32476 121.15756 24864 ft 442 kts 144°
2026-05-08 08:44 13.29940 121.17537 24864 ft 442 kts 144°
2026-05-08 08:44 13.27403 121.19315 24861 ft 441 kts 144°
2026-05-08 08:45 13.24868 121.21092 24860 ft 441 kts 144°
2026-05-08 08:45 13.22331 121.22870 24861 ft 441 kts 144°
2026-05-08 08:45 13.19799 121.24642 24858 ft 441 kts 144°
2026-05-08 08:45 13.17269 121.26415 24857 ft 441 kts 144°
2026-05-08 08:46 13.14764 121.28170 24858 ft 441 kts 144°
2026-05-08 08:46 13.12222 121.29952 24859 ft 441 kts 144°
2026-05-08 08:46 13.09690 121.31729 24855 ft 441 kts 144°
2026-05-08 08:46 13.07163 121.33501 24855 ft 440 kts 144°
2026-05-08 08:47 13.04632 121.35275 24858 ft 440 kts 144°
2026-05-08 08:47 13.02099 121.37049 24857 ft 440 kts 144°
2026-05-08 08:47 12.99564 121.38821 24857 ft 440 kts 144°
2026-05-08 08:47 12.97065 121.40566 24859 ft 440 kts 144°
2026-05-08 08:48 12.94531 121.42333 24860 ft 440 kts 144°
2026-05-08 08:48 12.92005 121.44095 24858 ft 439 kts 144°
2026-05-08 08:48 12.89479 121.45862 24860 ft 439 kts 144°
2026-05-08 08:48 12.87147 121.47494 24603 ft 437 kts 144°
2026-05-08 08:49 12.84631 121.49253 23926 ft 437 kts 144°
2026-05-08 08:49 12.82129 121.51001 23311 ft 435 kts 144°
2026-05-08 08:49 12.79640 121.52742 22695 ft 431 kts 144°
2026-05-08 08:49 12.77181 121.54462 22155 ft 425 kts 144°
2026-05-08 08:50 12.74751 121.56159 21633 ft 420 kts 144°
2026-05-08 08:50 12.72347 121.57834 21130 ft 415 kts 144°
2026-05-08 08:50 12.69976 121.59486 20645 ft 410 kts 144°
2026-05-08 08:50 12.67628 121.61124 20149 ft 406 kts 144°
2026-05-08 08:51 12.65308 121.62743 19661 ft 402 kts 143°
2026-05-08 08:51 12.63009 121.64345 19174 ft 398 kts 143°
2026-05-08 08:51 12.60732 121.65930 18690 ft 395 kts 143°
2026-05-08 08:51 12.58468 121.67503 18201 ft 392 kts 143°
2026-05-08 08:52 12.56125 121.68927 17289 ft 392 kts 155°
2026-05-08 08:52 12.53484 121.69618 16271 ft 394 kts 173°
2026-05-08 08:52 12.50741 121.69760 15642 ft 394 kts 175°
2026-05-08 08:52 12.48007 121.69898 15128 ft 392 kts 175°
2026-05-08 08:53 12.45286 121.70044 14605 ft 391 kts 175°
2026-05-08 08:53 12.42564 121.70194 14075 ft 390 kts 175°
2026-05-08 08:53 12.39851 121.70343 13527 ft 389 kts 175°
2026-05-08 08:53 12.37188 121.70486 12967 ft 388 kts 175°
2026-05-08 08:54 12.34501 121.70628 12426 ft 385 kts 175°
2026-05-08 08:54 12.31830 121.70770 11885 ft 383 kts 175°
2026-05-08 08:54 12.29176 121.70912 11334 ft 380 kts 175°
2026-05-08 08:54 12.26549 121.71050 10919 ft 374 kts 174°
2026-05-08 08:55 12.23964 121.71183 10555 ft 366 kts 174°
2026-05-08 08:55 12.21464 121.71312 10437 ft 352 kts 174°
2026-05-08 08:55 12.19067 121.71436 10318 ft 339 kts 174°
2026-05-08 08:55 12.16750 121.71556 10199 ft 327 kts 174°
2026-05-08 08:56 12.15262 121.71634 10124 ft 320 kts 174°
2026-05-08 08:56 12.13076 121.71747 9966 ft 310 kts 174°
2026-05-08 08:56 12.10331 121.71895 9315 ft 304 kts 173°
2026-05-08 08:56 12.08222 121.72010 8888 ft 301 kts 173°
2026-05-08 08:57 12.06140 121.72122 8484 ft 299 kts 173°
2026-05-08 08:57 12.04740 121.72199 8222 ft 297 kts 173°
2026-05-08 08:57 12.02016 121.72344 7703 ft 294 kts 173°
2026-05-08 08:57 12.00664 121.72415 7436 ft 294 kts 173°
2026-05-08 08:58 11.98615 121.72522 7057 ft 293 kts 173°
2026-05-08 08:58 11.96582 121.72630 6667 ft 292 kts 173°
2026-05-08 08:58 11.94551 121.72738 6282 ft 291 kts 173°
2026-05-08 08:58 11.92528 121.72847 5862 ft 290 kts 173°
2026-05-08 08:59 11.90576 121.73231 5481 ft 282 kts 155°
2026-05-08 08:59 11.88826 121.74089 5089 ft 279 kts 149°
2026-05-08 08:59 11.87094 121.74989 4693 ft 277 kts 149°
2026-05-08 08:59 11.85384 121.75886 4295 ft 274 kts 145°
2026-05-08 09:00 11.84067 121.77190 3913 ft 261 kts 113°
2026-05-08 09:00 11.83768 121.78944 3564 ft 251 kts 79°
2026-05-08 09:00 11.84343 121.80598 3241 ft 247 kts 63°
2026-05-08 09:00 11.85203 121.82099 2901 ft 244 kts 59°
2026-05-08 09:01 11.86098 121.83533 2575 ft 240 kts 59°
2026-05-08 09:01 11.86973 121.84978 2229 ft 238 kts 60°
2026-05-08 09:01 11.87791 121.86404 1913 ft 225 kts 61°
2026-05-08 09:01 11.88515 121.87726 1641 ft 210 kts 60°
2026-05-08 09:02 11.89193 121.89006 1377 ft 199 kts 62°
2026-05-08 09:02 11.89824 121.90219 1097 ft 187 kts 61°
2026-05-08 09:02 11.90370 121.91285 883 ft 170 kts 62°
2026-05-08 09:02 11.90884 121.92299 679 ft 150 kts 61°
2026-05-08 09:03 11.91348 121.93218 468 ft 141 kts 62°
2026-05-08 09:03 11.91790 121.94108 279 ft 140 kts 62°
2026-05-08 09:03 11.92238 121.94979 87 ft 137 kts 62°
2026-05-08 09:03 11.92649 121.95781 27 ft 103 kts 63°
2026-05-08 09:04 11.92854 121.96189 25 ft 46 kts 63°
2026-05-08 09:04 11.92943 121.96366 25 ft 19 kts 62°
2026-05-08 09:04 11.92968 121.96447 24 ft 8 kts 109°
2026-05-08 09:04 11.92939 121.96470 26 ft 3 kts 153°
2026-05-08 09:05 11.92910 121.96485 27 ft 8 kts 154°
2026-05-08 09:05 11.92864 121.96509 28 ft 6 kts 153°
2026-05-08 09:05 11.92831 121.96525 26 ft 5 kts 155°
2026-05-08 09:05 11.92792 121.96509 26 ft 11 kts 234°
2026-05-08 09:06 11.92758 121.96441 26 ft 10 kts 243°
2026-05-08 09:06 11.92731 121.96429 26 ft 3 kts 168°
2026-05-08 09:06 11.92715 121.96433 26 ft 2 kts 157°
2026-05-08 09:06 11.92707 121.96438 26 ft 1 kts 153°